Volver al catálogo

CZ-4C DEB

ActivoSSO
NORAD 42671·DEBRIS·🇨🇳 China

Lanzado Nov 26, 2015 desde Taiyuan Satellite Launch Center

Loading…

Próximos Pases (próximas 24 horas)

TLE

ActualizadoSource: Space-Track

Época: Sep 14, 2026, 09:51 UTC

1 42671U 15069D   26257.41097879  .00003287  00000-0  41581-3 0  9990
2 42671  97.7751 115.5501 0112236  82.2685 279.1253 14.78103025569675

Sigue CZ-4C DEB en tiempo real con AllMySat

Download on the App Store